GW3646 Weather Reports


Display with metric or nautical units.
time (UTC)temp
F
wind
direction
speed
MPH
gust
MPH
rain 1hr
in
rain 24hr
in
rain mn
in
humidity
%
barometer
mb
20260506235004 58 68 1.0 4.0 0.00 0.00 0.00 45 1017.9
20260506234513 59 73 0.0 4.0 0.00 0.00 0.00 46 1017.8
20260506234007 59 84 0.0 4.0 0.00 0.00 0.00 45 1017.8
20260506233504 59 84 2.0 5.0 0.00 0.00 0.00 46 1017.7
20260506233010 59 88 1.0 5.0 0.00 0.00 0.00 46 1017.7
20260506232502 59 57 2.0 4.0 0.00 0.00 0.00 46 1017.8
20260506232002 59 65 1.0 4.0 0.00 0.00 0.00 45 1017.7
20260506231504 59 231 0.0 6.0 0.00 0.00 0.00 46 1017.7
20260506231004 59 69 1.0 6.0 0.00 0.00 0.00 45 1017.7
20260506230502 59 46 1.0 7.0 0.00 0.00 0.00 44 1017.7
20260506230005 60 54 0.0 9.0 0.00 0.00 0.00 46 1017.7
20260506225504 60 85 3.0 9.0 0.00 0.00 0.00 44 1017.8
20260506225005 60 63 1.0 4.0 0.00 0.00 0.00 43 1017.6
20260506224523 60 321 1.0 4.0 0.00 0.00 0.00 43 1017.6
20260506224004 59 71 1.0 4.0 0.00 0.00 0.00 44 1017.4
20260506223506 59 82 0.0 6.0 0.00 0.00 0.00 46 1017.3
20260506223012 60 64 1.0 6.0 0.00 0.00 0.00 42 1017.3
20260506222504 61 280 2.0 6.0 0.00 0.00 0.00 42 1017.3
20260506222008 61 93 1.0 8.0 0.00 0.00 0.00 43 1017.3
20260506221514 61 61 2.0 8.0 0.00 0.00 0.00 42 1017.3
20260506221005 62 201 1.0 8.0 0.00 0.00 0.00 41 1017.4
20260506220503 62 82 2.0 8.0 0.00 0.00 0.00 43 1017.4
20260506220012 62 184 1.0 7.0 0.00 0.00 0.00 42 1017.5
20260506215502 61 77 2.0 10.0 0.00 0.00 0.00 42 1017.5
20260506215003 61 82 3.0 10.0 0.00 0.00 0.00 41 1017.5
20260506214510 62 68 4.0 8.0 0.00 0.00 0.00 41 1017.6
20260506214005 62 39 1.0 6.0 0.00 0.00 0.00 40 1017.6
20260506213505 61 88 2.0 8.0 0.00 0.00 0.00 40 1017.7
20260506213011 61 71 3.0 8.0 0.00 0.00 0.00 40 1017.8
20260506212504 62 49 2.0 6.0 0.00 0.00 0.00 41 1017.8
20260506212006 61 44 1.0 6.0 0.00 0.00 0.00 40 1017.8
20260506211519 61 63 2.0 9.0 0.00 0.00 0.00 43 1017.8
20260506211009 60 217 1.0 9.0 0.00 0.00 0.00 44 1017.8
20260506210503 61 61 2.0 8.0 0.00 0.00 0.00 41 1017.8
20260506210013 61 89 3.0 7.0 0.00 0.00 0.00 40 1017.9
20260506205507 62 64 2.0 6.0 0.00 0.00 0.00 40 1017.9
20260506205003 62 154 1.0 7.0 0.00 0.00 0.00 39 1018.0
20260506204504 62 69 3.0 8.0 0.00 0.00 0.00 40 1018.0
20260506204004 62 74 0.0 8.0 0.00 0.00 0.00 40 1018.2
20260506203506 62 61 2.0 5.0 0.00 0.00 0.00 42 1018.0
20260506203008 62 61 2.0 4.0 0.00 0.00 0.00 43 1018.2
20260506202503 62 52 2.0 4.0 0.00 0.00 0.00 42 1018.4
20260506202004 62 11 1.0 8.0 0.00 0.00 0.00 40 1018.4
20260506201516 61 61 2.0 8.0 0.00 0.00 0.00 42 1018.4
20260506201006 61 345 2.0 5.0 0.00 0.00 0.00 44 1018.5
20260506200505 60 57 2.0 5.0 0.00 0.00 0.00 43 1018.6
20260506200017 59 178 1.0 8.0 0.00 0.00 0.00 44 1018.7
20260506195503 59 51 3.0 8.0 0.00 0.00 0.00 43 1018.7
20260506195007 60 70 2.0 6.0 0.00 0.00 0.00 42 1018.7
20260506194528 60 328 1.0 8.0 0.00 0.00 0.00 41 1018.8
20260506194006 60 85 2.0 8.0 0.00 0.00 0.00 41 1018.8
20260506193503 60 69 2.0 11.0 0.00 0.00 0.00 42 1018.8
20260506193006 61 79 1.0 11.0 0.00 0.00 0.00 42 1018.7
20260506192504 61 67 2.0 10.0 0.00 0.00 0.00 46 1018.7
20260506192004 60 53 2.0 7.0 0.00 0.00 0.00 43 1018.7
20260506191514 60 76 1.0 7.0 0.00 0.00 0.00 42 1018.7
20260506191004 60 60 3.0 9.0 0.00 0.00 0.00 44 1018.7
20260506190505 60 90 3.0 9.0 0.00 0.00 0.00 42 1018.8
20260506190020 61 352 2.0 9.0 0.00 0.00 0.00 44 1018.7
20260506185507 60 51 1.0 6.0 0.00 0.00 0.00 45 1018.7
20260506185006 59 93 3.0 9.0 0.00 0.00 0.00 43 1018.8
20260506184524 59 96 2.0 9.0 0.00 0.00 0.00 44 1018.8
20260506184006 59 53 2.0 12.0 0.00 0.00 0.00 43 1018.9
20260506183508 58 9 4.0 12.0 0.00 0.00 0.00 46 1018.9
20260506183018 58 95 1.0 12.0 0.00 0.00 0.00 50 1018.9
20260506182507 57 92 3.0 12.0 0.00 0.00 0.00 47 1019.2
20260506182004 58 64 3.0 9.0 0.00 0.00 0.00 46 1019.2
20260506181508 59 61 2.0 9.0 0.00 0.00 0.00 48 1019.3
20260506181004 58 72 2.0 10.0 0.00 0.00 0.00 52 1019.4
20260506180504 58 76 4.0 10.0 0.00 0.00 0.00 48 1019.4
20260506180014 58 105 2.0 8.0 0.00 0.00 0.00 49 1019.5
20260506175505 58 63 3.0 9.0 0.00 0.00 0.00 50 1019.6
20260506175006 57 77 4.0 9.0 0.00 0.00 0.00 49 1019.6
20260506174521 58 81 3.0 8.0 0.00 0.00 0.00 51 1019.7
20260506174007 57 360 1.0 8.0 0.00 0.00 0.00 54 1019.6
20260506173507 56 70 2.0 9.0 0.00 0.00 0.00 54 1019.7
20260506173022 56 77 4.0 11.0 0.00 0.00 0.00 51 1019.8
20260506172506 56 40 2.0 11.0 0.00 0.00 0.00 54 1019.7
20260506172006 56 107 3.0 10.0 0.00 0.00 0.00 55 1019.7
20260506171525 56 78 4.0 10.0 0.00 0.00 0.00 55 1019.8
20260506171011 55 70 1.0 9.0 0.00 0.00 0.00 57 1019.7
20260506170508 54 59 2.0 11.0 0.00 0.00 0.00 57 1019.7
20260506170011 55 76 5.0 11.0 0.00 0.00 0.00 56 1019.8
20260506165506 54 73 4.0 11.0 0.00 0.00 0.00 58 1019.7
20260506165006 54 72 4.0 9.0 0.00 0.00 0.00 57 1019.8
20260506164517 54 39 2.0 9.0 0.00 0.00 0.00 59 1019.8
20260506164008 54 57 4.0 11.0 0.00 0.00 0.00 62 1019.8
20260506163508 53 61 4.0 11.0 0.00 0.00 0.00 60 1019.7
20260506163022 53 60 4.0 9.0 0.00 0.00 0.00 62 1019.3
20260506162506 53 61 3.0 9.0 0.00 0.00 0.00 63 1019.4
20260506162011 52 69 2.0 8.0 0.00 0.00 0.00 64 1019.5
20260506161522 52 80 3.0 8.0 0.00 0.00 0.00 63 1019.6
20260506161006 52 55 3.0 8.0 0.00 0.00 0.00 67 1019.5
20260506160509 52 53 2.0 11.0 0.00 0.00 0.00 66 1019.7
20260506160034 53 43 2.0 11.0 0.00 0.00 0.00 67 1019.7
20260506155507 53 50 2.0 6.0 0.00 0.00 0.00 68 1019.7
20260506155009 52 34 3.0 9.0 0.00 0.00 0.00 71 1019.7
20260506154516 51 55 3.0 9.0 0.00 0.00 0.00 70 1019.6
20260506154006 51 74 2.0 7.0 0.00 0.00 0.00 70 1019.6
20260506153505 51 68 3.0 7.0 0.00 0.00 0.00 70 1019.7
20260506153017 51 53 3.0 7.0 0.00 0.00 0.00 71 1019.6
20260506152504 50 20 2.0 8.0 0.00 0.00 0.00 72 1019.4
20260506152002 50 101 3.0 9.0 0.00 0.00 0.00 70 1019.4
20260506151505 50 104 4.0 9.0 0.00 0.00 0.00 71 1019.5
20260506151003 50 49 2.0 5.0 0.00 0.00 0.00 72 1019.7
20260506150503 50 59 1.0 8.0 0.00 0.00 0.00 74 1019.8
20260506150004 49 51 2.0 8.0 0.00 0.00 0.00 73 1019.6
20260506145505 49 77 2.0 6.0 0.00 0.00 0.00 72 1019.5
20260506145005 49 78 2.0 6.0 0.00 0.00 0.00 72 1019.3
20260506144512 49 73 2.0 6.0 0.00 0.00 0.00 72 1019.1
20260506144008 49 105 1.0 6.0 0.00 0.00 0.00 75 1019.5
20260506143503 49 79 1.0 4.0 0.00 0.00 0.00 75 1019.3
20260506143016 49 61 1.0 5.0 0.00 0.00 0.00 75 1019.3
20260506142507 49 48 1.0 5.0 0.00 0.00 0.00 76 1019.3
20260506142011 49 77 1.0 3.0 0.00 0.00 0.00 76 1019.6
20260506141504 49 57 0.0 4.0 0.00 0.00 0.00 75 1019.6
20260506141002 49 80 0.0 7.0 0.00 0.00 0.00 76 1019.5
20260506140504 49 71 1.0 7.0 0.00 0.00 0.00 76 1019.2
20260506140004 49 71 1.0 4.0 0.00 0.00 0.00 79 1019.0
20260506135504 48 67 1.0 6.0 0.00 0.00 0.00 79 1018.9
20260506135003 47 69 1.0 6.0 0.00 0.00 0.00 79 1018.9
20260506134508 47 64 1.0 5.0 0.00 0.00 0.00 80 1018.9
20260506134004 47 12 0.0 4.0 0.00 0.00 0.00 82 1019.0
20260506133504 46 63 2.0 4.0 0.00 0.00 0.00 81 1019.0
20260506133012 46 78 1.0 4.0 0.00 0.00 0.00 82 1019.2
20260506132509 46 67 0.0 4.0 0.00 0.00 0.00 82 1019.2
20260506132009 46 73 0.0 2.0 0.00 0.00 0.00 83 1019.1
20260506131536 46 68 0.0 5.0 0.00 0.00 0.00 83 1019.4
20260506131006 46 68 2.0 5.0 0.00 0.00 0.00 83 1019.2
20260506130507 45 75 0.0 4.0 0.00 0.00 0.00 84 1019.2
20260506130035 45 75 0.0 5.0 0.00 0.00 0.00 84 1019.0
20260506125502 45 78 1.0 5.0 0.00 0.00 0.00 83 1018.7
20260506125003 45 78 1.0 4.0 0.00 0.00 0.00 84 1018.7
20260506124506 45 37 0.0 5.0 0.00 0.00 0.00 85 1018.6
20260506124003 45 62 2.0 5.0 0.00 0.00 0.00 85 1018.6
20260506123503 45 68 2.0 4.0 0.00 0.00 0.00 85 1018.4
20260506123010 45 59 0.0 3.0 0.00 0.00 0.00 85 1018.7
20260506122504 45 55 0.0 4.0 0.00 0.00 0.00 85 1018.4
20260506122006 44 84 0.0 4.0 0.00 0.00 0.00 85 1018.3
20260506121513 44 83 0.0 3.0 0.00 0.00 0.00 86 1018.3
20260506121008 44 83 0.0 0.0 0.00 0.00 0.00 86 1018.2
20260506120504 44 83 0.0 0.0 0.00 0.00 0.00 86 1018.1
20260506120021 44 83 0.0 0.0 0.00 0.00 0.00 86 1018.0
20260506115506 44 83 0.0 0.0 0.00 0.00 0.00 86 1017.9
20260506115005 44 83 0.0 0.0 0.00 0.00 0.00 86 1017.7
20260506114523 44 83 0.0 0.0 0.00 0.00 0.00 86 1017.6
20260506114005 44 83 0.0 2.0 0.00 0.00 0.00 87 1017.3
20260506113504 44 83 0.0 2.0 0.00 0.00 0.00 87 1017.2
20260506113008 44 69 0.0 2.0 0.00 0.00 0.00 87 1017.2
20260506112505 44 69 0.0 3.0 0.00 0.00 0.00 86 1017.3
20260506112003 44 69 0.0 4.0 0.00 0.00 0.00 86 1017.1
20260506111513 44 84 1.0 4.0 0.00 0.00 0.00 86 1016.9
20260506111003 44 89 1.0 4.0 0.00 0.00 0.00 87 1017.0
20260506110507 44 67 0.0 3.0 0.00 0.00 0.00 87 1017.0
20260506110012 44 67 1.0 3.0 0.00 0.00 0.00 87 1017.0
20260506105507 44 67 0.0 0.0 0.00 0.00 0.00 87 1017.0
20260506105007 44 67 0.0 1.0 0.00 0.00 0.00 87 1017.2
20260506104520 44 67 0.0 3.0 0.00 0.00 0.00 87 1017.1
20260506104006 44 67 0.0 3.0 0.00 0.00 0.00 87 1017.1
20260506103507 44 57 0.0 3.0 0.00 0.00 0.00 87 1017.0
20260506103034 44 55 0.0 4.0 0.00 0.00 0.00 87 1016.5
20260506102508 44 82 0.0 4.0 0.00 0.00 0.00 87 1016.6
20260506102003 44 84 0.0 4.0 0.00 0.00 0.00 87 1016.8
20260506101508 44 80 1.0 4.0 0.00 0.00 0.00 87 1016.7
20260506101003 44 84 0.0 4.0 0.00 0.00 0.00 87 1016.7
20260506100506 44 81 1.0 4.0 0.00 0.00 0.00 87 1016.4
20260506100011 44 60 1.0 4.0 0.00 0.00 0.00 87 1016.4
20260506095508 44 65 0.0 3.0 0.00 0.00 0.00 87 1016.5
20260506095005 44 70 0.0 5.0 0.00 0.00 0.00 87 1016.5
20260506094518 44 63 2.0 5.0 0.00 0.00 0.00 87 1016.4
20260506094009 44 39 2.0 5.0 0.00 0.00 0.00 87 1016.5
20260506093507 44 82 1.0 6.0 0.00 0.00 0.00 87 1016.5
20260506093026 44 80 1.0 6.0 0.00 0.00 0.00 87 1016.7
20260506092510 44 64 2.0 6.0 0.00 0.00 0.00 87 1016.4
20260506092014 44 67 1.0 4.0 0.00 0.00 0.00 86 1016.4
20260506091527 44 90 1.0 6.0 0.00 0.00 0.00 86 1016.6
20260506091007 44 48 2.0 6.0 0.00 0.00 0.00 86 1016.6
20260506090503 44 61 1.0 6.0 0.00 0.00 0.00 86 1017.1
20260506090010 44 84 2.0 6.0 0.00 0.00 0.00 85 1017.1
20260506085506 45 56 0.0 4.0 0.00 0.00 0.00 85 1017.1
20260506085003 45 42 2.0 4.0 0.00 0.00 0.00 85 1017.1
20260506084514 45 74 1.0 4.0 0.00 0.00 0.00 85 1017.1
20260506084003 45 23 1.0 5.0 0.00 0.00 0.00 84 1017.2
20260506083508 45 67 1.0 7.0 0.00 0.00 0.00 84 1016.4
20260506083017 45 68 2.0 7.0 0.00 0.00 0.00 84 1016.6
20260506082508 45 76 1.0 4.0 0.00 0.00 0.00 84 1016.9
20260506082006 45 53 0.0 5.0 0.00 0.00 0.00 83 1016.8
20260506081522 45 64 2.0 6.0 0.00 0.00 0.00 83 1016.8
20260506081007 45 34 1.0 7.0 0.00 0.00 0.00 83 1016.6
20260506080510 45 57 4.0 7.0 0.00 0.00 0.00 83 1016.9
20260506073508 45 72 2.0 9.0 0.00 0.00 0.00 84 1015.5
20260506073016 45 51 3.0 7.0 0.00 0.00 0.00 83 1015.2
20260506072508 45 84 3.0 10.0 0.00 0.00 0.00 83 1015.2
20260506072008 45 69 4.0 10.0 0.00 0.00 0.00 83 1015.2
20260506071523 45 49 4.0 8.0 0.00 0.00 0.00 83 1015.2
20260506071009 45 65 2.0 9.0 0.00 0.00 0.00 83 1015.1
20260506070512 45 84 3.0 10.0 0.00 0.00 0.00 82 1014.7
20260506062505 48 40 2.0 9.0 0.00 0.00 0.00 75 1015.5
20260506062005 48 71 1.0 9.0 0.00 0.00 0.00 75 1015.3
20260506061504 48 92 2.0 9.0 0.00 0.00 0.00 74 1015.0
20260506061003 48 59 3.0 11.0 0.00 0.00 0.00 73 1014.6
20260506060503 49 61 4.0 11.0 0.00 0.00 0.00 72 1014.9
20260506051010 50 62 4.0 10.0 0.00 0.00 0.00 64 1014.6
20260506050505 50 80 4.0 10.0 0.00 0.00 0.00 65 1014.7
20260506045002 50 67 3.0 8.0 0.00 0.00 0.00 67 1014.6
20260506044503 50 113 3.0 9.0 0.00 0.00 0.00 68 1014.4
20260506044003 50 76 2.0 9.0 0.00 0.00 0.00 69 1014.1
20260506043506 51 78 4.0 8.0 0.00 0.00 0.00 69 1014.2
20260506043008 51 86 1.0 6.0 0.00 0.00 0.00 69 1014.2
20260506042503 51 78 2.0 6.0 0.00 0.00 0.00 69 1014.3
20260506042004 51 79 1.0 6.0 0.00 0.00 0.00 70 1014.3
20260506041514 51 78 1.0 7.0 0.00 0.00 0.00 71 1014.3
20260506041002 51 60 2.0 7.0 0.00 0.00 0.00 71 1014.3
20260506040506 51 63 1.0 7.0 0.00 0.00 0.00 72 1014.3
20260506040017 51 66 2.0 7.0 0.00 0.00 0.00 72 1014.4
20260506035507 51 59 2.0 6.0 0.00 0.00 0.00 73 1014.6
20260506035007 51 65 1.0 6.0 0.00 0.00 0.00 73 1014.6
20260506034520 51 74 1.0 5.0 0.00 0.00 0.00 73 1014.6
20260506034004 51 69 1.0 6.0 0.00 0.00 0.00 73 1014.6
20260506033503 51 67 2.0 6.0 0.00 0.00 0.00 73 1014.7
20260506033005 51 57 1.0 6.0 0.00 0.00 0.00 73 1014.9
20260506032503 51 79 2.0 6.0 0.00 0.00 0.00 73 1014.5
20260506032003 51 67 2.0 5.0 0.00 0.00 0.00 73 1014.4
20260506031506 51 59 2.0 6.0 0.00 0.00 0.00 72 1014.1
20260506031004 51 19 2.0 8.0 0.00 0.00 0.00 72 1014.2
20260506030504 51 79 0.0 8.0 0.00 0.00 0.00 73 1014.2
20260506030025 51 70 0.0 3.0 0.00 0.00 0.00 74 1014.2
20260506025504 51 34 0.0 4.0 0.00 0.00 0.00 74 1014.2
20260506025006 51 82 1.0 4.0 0.00 0.00 0.00 73 1014.1
20260506024535 51 65 1.0 4.0 0.00 0.00 0.00 72 1014.2
20260506024008 51 54 2.0 5.0 0.00 0.00 0.00 71 1014.3
20260506023506 51 90 1.0 7.0 0.00 0.00 0.00 70 1014.3
20260506023023 51 74 0.0 7.0 0.00 0.00 0.00 69 1014.1
20260506022503 51 86 1.0 5.0 0.00 0.00 0.00 69 1013.8
20260506022003 51 62 2.0 5.0 0.00 0.00 0.00 69 1013.8
20260506021506 51 74 2.0 5.0 0.00 0.00 0.00 69 1013.8
20260506021003 51 66 1.0 4.0 0.00 0.00 0.00 70 1013.8
20260506020503 51 80 0.0 0.0 0.00 0.00 0.00 73 1013.7
20260506020008 51 80 0.0 2.0 0.00 0.00 0.00 73 1013.5
20260506015503 51 78 0.0 2.0 0.00 0.00 0.00 74 1013.3
20260506015003 51 78 0.0 0.0 0.00 0.00 0.00 74 1013.2
20260506014518 51 78 0.0 0.0 0.00 0.00 0.00 74 1013.2
20260506014005 51 78 0.0 0.0 0.00 0.00 0.00 75 1013.1
20260506013505 51 78 0.0 0.0 0.00 0.00 0.00 75 1013.0
20260506013019 51 78 0.0 0.0 0.00 0.00 0.00 74 1013.0
20260506012507 51 78 0.0 0.0 0.00 0.00 0.00 74 1012.9
20260506012006 51 78 0.0 0.0 0.00 0.00 0.00 74 1012.7
20260506011523 51 78 0.0 0.0 0.00 0.00 0.00 74 1012.8
20260506011004 51 78 0.0 0.0 0.00 0.00 0.00 74 1012.9
20260506010504 51 78 0.0 0.0 0.00 0.00 0.00 73 1012.9
20260506010006 51 78 0.0 0.0 0.00 0.00 0.00 74 1012.7
20260506005504 51 78 0.0 2.0 0.00 0.00 0.00 72 1012.5
20260506005003 51 78 0.0 3.0 0.00 0.00 0.00 73 1012.4
20260506004512 51 78 0.0 3.0 0.00 0.00 0.00 72 1012.4
20260506004006 51 59 0.0 2.0 0.00 0.00 0.00 73 1012.4
20260506003509 51 59 0.0 3.0 0.00 0.00 0.00 72 1012.5
20260506003018 51 111 0.0 3.0 0.00 0.00 0.00 72 1012.3
20260506002506 51 68 0.0 3.0 0.00 0.00 0.00 72 1012.3
20260506002007 51 69 0.0 3.0 0.00 0.00 0.00 71 1012.3
20260506001519 51 112 0.0 4.0 0.00 0.00 0.00 71 1012.2
20260506001007 51 83 1.0 5.0 0.00 0.00 0.00 71 1012.1
20260506000511 51 62 0.0 5.0 0.00 0.00 0.00 71 1011.9
20260506000024 51 62 2.0 5.0 0.00 0.00 0.00 70 1011.9
20260505235509 51 63 0.0 4.0 0.00 0.00 0.00 72 1011.9